星链-6253 (STARLINK-6253 )

导读 | 星芒AI

STARLINK-6253 是 SpaceX Starlink 卫星互联网项目中的一颗低轨卫星,属于第62批发射的星链卫星之一。该卫星运行在约550公里高度的近地轨道,旨在为全球用户提供高速互联网服务。Starlink 项目通过部署大量卫星,构建覆盖全球的宽带网络,尤其服务于网络基础设施薄弱的地区。STARLINK-6253 采用先进推进和通信技术,具备自主避障能力,有助于提升星座整体的稳定性和效率。

基本信息
目录编号:
57083
目录名称:
STARLINK-6253
国际标识:
2023-088AM
轨道中心:
EARTH
卫星名称:
星链-6253
卫星全名:
星链-6253 (STARLINK-6253 )
卫星状态:
在轨 (已飞行865 天)
发射日期:
2023-06-22 UTC
国别 :
美国 (US)
星等 :
--
轨道信息
数据来源 国际轨道数据 AOE轨道数据
星历时间 2025-11-02T01:59:04+0800
2天前
查看轨道信息
2025-11-02T03:00:00+0800
2天前
查看轨道信息
半长轴 6937.222km 6937.216km
偏心率 0.0001177 0.0000428
轨道倾角 43.003° 43.006°
近地点辐角 271.794° 168.571°
升交点赤经 69.699° 69.470°
平近点角 88.277° 60.667°
近地点 558.27km 558.784km
远地点 559.904km 559.378km
周期 95.838分钟 95.838分钟
每日圈数 15.025343 15.025363
详细信息
固有亮度:
5
最大亮度:
2.4
卫星平台:
Starlink v1.5
覆盖范围:
全球
运营商:
太空探索技术公司
运营商所在国:
美国
制造商(研发单位):
太空探索技术公司
制造商所在国:
美国
使用方式:
暂无
卫星简介
星链(Starlink)计划是由太空探索技术公司(SpaceX)提出的一个巨型低轨卫星互联网星座项目,计划在2019年至2024年间在太空搭建由约1.2万颗卫星组成的“星链”网络,其中1584颗将部署在地球上空550千米处的近地轨道,并从2020年开始工作。该卫星仍在工作。
2D轨道图
3D轨道图
轨道高度分析图
轨道倾角分析图
轨道综合分析图
查看轨道综合分析图